Location: Keppel Henge
(44.7900°N, 80.9447°W)
Time: 20:25:01
(UTC-04:00)

Tiangong 1 - Pass Details

Date: 11 October 2017
Orbit: 294 x 320 km, 42.8° (Epoch: 17 October)

Event Time Altitude Azimuth Distance (km) Brightness Sun altitude
Rises 19:30:36 0° 265° (W) 2,044 7.2 -8.8°
Reaches altitude 10° 19:32:36 10° 261° (W) 1,209 5.2 -9.1°
Maximum altitude 19:35:16 55° 182° (S) 382 1.0 -9.6°
Enters shadow 19:37:14 16° 106° (ESE) 933 2.4 -10.0°
